Regional Weather Roundup
Issued by NWS Upton, NY

Current Version | Previous Version | Text Only | Print | Product List | Glossary On
Versions: 1 2 3 4 5 6 7 8 9 10 11 12 13 14 15 16 17 18 19 20 21 22 23 24 25 26 27 28 29 30 31 32 33 34 35 36 37 38 39 40 41 42 43 44 45 46 47 48 49 50
000
ASUS41 KOKX 291805
RWROKX

REGIONAL WEATHER ROUNDUP
NATIONAL WEATHER SERVICE NEW YORK NY
100 PM EST THU JAN 29 2015

NOTE: "FAIR" INDICATES FEW OR NO CLOUDS BELOW 12,000 FEET WITH NO
SIGNIFICANT WEATHER AND/OR OBSTRUCTIONS TO VISIBILITY.

NYZ071-072-176-178-NJZ106-104-291900-
NEW YORK CITY METRO AREA


CITY           SKY/WX    TMP DP  RH WIND       PRES   REMARKS
CENTRAL PARK   MOSUNNY   32   9  38 CALM      30.24F
LAGUARDIA APRT PTSUNNY   30  11  45 NE7       30.23F WCI  23
KENNEDY INTL   PTSUNNY   30  13  49 S6        30.26F WCI  24
NEWARK/LIBERTY PTSUNNY   29   8  41 CALM      30.23F
BRNX BOT. GARD   N/A    N/A N/A N/A S10       30.24F
TETERBORO      MOSUNNY   30   8  39 S6        30.22F WCI  24
$$

NYZ177-179-078>081-291900-
LONG ISLAND NEW YORK

CITY           SKY/WX    TMP DP  RH WIND       PRES   REMARKS
FARMINGDALE    SUNNY     30   8  39 SE7       30.24F WCI  23
ISLIP          PTSUNNY   31   5  33 SE7       30.22F WCI  24
SHIRLEY        SUNNY     31  11  43 S7        30.24F WCI  24
WESTHAMPTON    SUNNY     31  17  56 SW5       30.26F WCI  26
MONTAUK POINT    N/A     34  20  56 VRB5      30.25F WCI  30
$$

NYZ052-065-067-291900-
HUDSON VALLEY

CITY           SKY/WX    TMP DP  RH WIND       PRES   REMARKS
WHITE PLAINS   SUNNY     29   8  41 SE5       30.20F WCI  24
NEWBURGH       PTSUNNY   25   7  46 CALM      30.21F
MONTGOMERY     MOSUNNY   24   2  38 CALM      30.19F
POUGHKEEPSIE   MOSUNNY   28   3  34 CALM      30.21F
ALBANY         CLOUDY    22   2  42 S7        30.18F WCI  13
$$

NJZ001-105-106-008-010-013-015-019>022-104-291900-
NEW JERSEY

CITY           SKY/WX    TMP DP  RH WIND       PRES   REMARKS
NEWARK/LIBERTY PTSUNNY   29   8  41 CALM      30.23F
TETERBORO      MOSUNNY   30   8  39 S6        30.22F WCI  24
CALDWELL       PTSUNNY   30   2  30 CALM      30.22F
MORRISTOWN     PTSUNNY   30   5  34 CALM      30.22F
SOMERVILLE     CLOUDY    29   4  34 SE5       30.21F WCI  24
SUSSEX         PTSUNNY   24   2  38 CALM      30.19F
ANDOVER          N/A     26   5  40 NE3       30.18F
TRENTON        CLOUDY    28   8  43 SE6       30.22F WCI  22
MILLVILLE      CLOUDY    34  10  37 SW7       30.23F WCI  28
ATLANTIC CITY  PTSUNNY   33  12  41 S5        30.23F WCI  29
WRIGHTSTOWN    PTSUNNY   33  11  40 SE6       30.19F WCI  27
TOMS RIVER     PTSUNNY   34  16  47 S6        30.23F WCI  29
BELMAR         MOSUNNY   30  16  55 SE5       30.22F WCI  25
$$

PAZ047>061-062-071-291900-
EASTERN PENNSYLVANIA

CITY           SKY/WX    TMP DP  RH WIND       PRES   REMARKS
PHILADELPHIA   CLOUDY    33   7  33 S5        30.24F WCI  29
ALLENTOWN      CLOUDY    26   9  48 NE5       30.20F WCI  20
SCRANTON       CLOUDY    24   9  52 CALM      30.09F HAZE
$$

CTZ002-004>006-009-010-012-RIZ004-006-007-MAZ004-011-015-291900-
SOUTHERN NEW ENGLAND
 IN CT

CITY           SKY/WX    TMP DP  RH WIND       PRES   REMARKS
BRADLEY INTL   PTSUNNY   24   2  38 CALM      30.23F
HARTFORD       SUNNY     24   2  38 CALM      30.25F
DANBURY        SUNNY     32  -1  24 SE6       30.20F WCI  26
WTRBRY/OXFORD  MOSUNNY   30   1  29 S7        30.19F WCI  23
BRIDGEPORT     SUNNY     28   9  44 E6        30.25F WCI  22
MERIDEN        SUNNY     28   3  34 CALM      30.24F
NEW HAVEN      SUNNY     28   3  34 CALM      30.24F
CHESTER        FAIR      32  -4  21 SE3       30.22F
GROTON         SUNNY     27  15  61 SW5       30.25F WCI  22
WILLIMANTIC    SUNNY     31  -3  23 W6        30.24F WCI  25

 IN RI

CITY           SKY/WX    TMP DP  RH WIND       PRES   REMARKS
PROVIDENCE     MOSUNNY   32   8  36 CALM      30.24F
BLOCK ISLAND   SUNNY     30  18  59 CALM      30.23F
WESTERLY       SUNNY     30  12  47 SE6       30.25F WCI  24

 IN MA

CITY           SKY/WX    TMP DP  RH WIND       PRES   REMARKS
BOSTON         MOSUNNY   31  14  49 CALM      30.24F
WORCESTER      SUNNY     28  -6  22 CALM      30.17F
WESTFIELD      SUNNY     29  -2  26 CALM      30.22F
PROVINCETOWN   NOT AVBL
NANTUCKET      SUNNY     35  23  61 NE9       30.22F WCI  28
$$

ANZ330-335-338-340-345-350-353-355-291900-
COASTAL MARINE OBSERVATIONS


STATION/POSITION TIME  SKY/WX   TEMP    WIND        PRES    VSBY  WAVE
                                AIR SEA DIR/SP/G                  HT/PER
                 (UTC)          (F)     (DEG/KT/KT) (MB)    (MI)  (FT/S)
NY HARB ENTRANCE 1800            29 40  130/  4/  8 1024.0          2/11
4S FIRE IS       NOT AVBL
20S FIRE ISLAND  1700               42              1026.1          2/10
23SW MTP         1800                                 N/A           2/11
HUDSON CANYON    NOT AVBL
EXECUTION ROCKS  1800            34 33   40/  2/  4   N/A
WESTERN LI SOUND 1700            27      60/  6/  8   N/A           0
CENTRAL LI SOUND 1800            30 35   CALM  /  2   N/A           0
EASTERN LI SOUND NOT AVBL
ROBBINS REEF     1800            27     170/  8/ 10 1023.1
$$


>>>>>>>>>>>>>>>>>>>>>>>>>>>> KEY <<<<<<<<<<<<<<<<<<<<<<<<<<<
>                                                          <
>     SKY/WX - SKY CONDITION/PRESENT WEATHER               <
>     TMP    - TEMPERATURE IN FAHRENHEIT                   <
>     DP     - DEWPOINT IN FAHRENHEIT                      <
>     RH     - RELATIVE HUMIDITY IN PERCENT                <
>     WIND   - DIRECTION AND SPEED IN MPH                  <
>     PRES   - MEAN SEA LEVEL PRESSURE IN INCHES OF HG     <
>     WCI    - WIND CHILL INDEX                            <
>     VSB    - VISIBILITY IN MILES                         <
>     HX     - HEAT INDEX                                  <
>     TC     - TEMPERATURE IN CELSIUS                      <
>     VRB    - VARIABLE WIND DIRECTION                     <
>                                                          <
>>>>>>>>>>>>>>>>>>>>>>>>>>>> KEY <<<<<<<<<<<<<<<<<<<<<<<<<<<




USA.gov is the U.S. government's official web portal to all federal, state and local government web resources and services.